STARLINK-35702

Last updated on Mon Dec 15 2025 00:02:12 GMT+0000 (Coordinated Universal Time)

1 66876U 25281AE 25348.25003472 -.01539789 00000+0 -64387-2 0 9999 2 66876 43.0004 112.8506 0001542 267.4244 327.9545 15.87272776 1671
UTC large
Height (km)
Speed (km/s)
/
Latitude / Longitude
Inclination (degrees)
Orbital Period (minutes)
Azimuth
Elevation
Range (km)
Doppler Factor

Next 0 passes for location: London (51.5072 / 0.1276)

Sorry there are no passes over London.